����������;��������(kWh)
2018-02-12 00:00;102,05
2018-02-12 00:15;105,85
2018-02-12 00:30;104,35
2018-02-12 00:45;106,1
2018-02-12 01:00;102,5
2018-02-12 01:15;105
2018-02-12 01:30;101,75
2018-02-12 01:45;103,9
2018-02-12 02:00;102,45
2018-02-12 02:15;105,85
2018-02-12 02:30;103,2
2018-02-12 02:45;107,7
2018-02-12 03:00;104,85
2018-02-12 03:15;105,5
2018-02-12 03:30;104,3
2018-02-12 03:45;104,3
2018-02-12 04:00;103
2018-02-12 04:15;103,8
2018-02-12 04:30;103,95
2018-02-12 04:45;102,9
2018-02-12 05:00;102,55
2018-02-12 05:15;103,15
2018-02-12 05:30;104,1
2018-02-12 05:45;101,95
2018-02-12 06:00;101,85
2018-02-12 06:15;98,8
2018-02-12 06:30;101,35
2018-02-12 06:45;98,25
2018-02-12 07:00;99,5
2018-02-12 07:15;100
2018-02-12 07:30;107,9
2018-02-12 07:45;111,85
2018-02-12 08:00;120,25
2018-02-12 08:15;132,3
2018-02-12 08:30;138,2
2018-02-12 08:45;175,85
2018-02-12 09:00;207,3
2018-02-12 09:15;224,35
2018-02-12 09:30;199,35
2018-02-12 09:45;183,3
2018-02-12 10:00;182,25
2018-02-12 10:15;183,9
2018-02-12 10:30;191,5
2018-02-12 10:45;196,4
2018-02-12 11:00;197
2018-02-12 11:15;200,4
2018-02-12 11:30;196,3
2018-02-12 11:45;193,4
2018-02-12 12:00;185,55
2018-02-12 12:15;183,3
2018-02-12 12:30;187,95
2018-02-12 12:45;195,95
2018-02-12 13:00;198,3
2018-02-12 13:15;209,5
2018-02-12 13:30;199,8
2018-02-12 13:45;199,5
2018-02-12 14:00;191,3
2018-02-12 14:15;184,05
2018-02-12 14:30;189,05
2018-02-12 14:45;188,55
2018-02-12 15:00;185,15
2018-02-12 15:15;184,05
2018-02-12 15:30;175,15
2018-02-12 15:45;170,3
2018-02-12 16:00;169,7
2018-02-12 16:15;160,1
2018-02-12 16:30;155,45
2018-02-12 16:45;155,3
2018-02-12 17:00;157,95
2018-02-12 17:15;151
2018-02-12 17:30;149,35
2018-02-12 17:45;156,05
2018-02-12 18:00;150,6
2018-02-12 18:15;150,9
2018-02-12 18:30;146,65
2018-02-12 18:45;146,7
2018-02-12 19:00;144,9
2018-02-12 19:15;139,6
2018-02-12 19:30;137,25
2018-02-12 19:45;141,55
2018-02-12 20:00;141,4
2018-02-12 20:15;138,1
2018-02-12 20:30;138,2
2018-02-12 20:45;137,1
2018-02-12 21:00;131,05
2018-02-12 21:15;132,25
2018-02-12 21:30;127,9
2018-02-12 21:45;128
2018-02-12 22:00;120,4
2018-02-12 22:15;121,3
2018-02-12 22:30;117,3
2018-02-12 22:45;120,1
2018-02-12 23:00;124
2018-02-12 23:15;119,7
2018-02-12 23:30;122,55
2018-02-12 23:45;129,45
2018-02-13 00:00;113,55
2018-02-13 00:15;118,45
2018-02-13 00:30;111,5
2018-02-13 00:45;113,05
2018-02-13 01:00;114,95
2018-02-13 01:15;114,25
2018-02-13 01:30;112,4
2018-02-13 01:45;115
2018-02-13 02:00;111,15
2018-02-13 02:15;115,15
2018-02-13 02:30;113,55
2018-02-13 02:45;115,4
2018-02-13 03:00;105,5
2018-02-13 03:15;102,9
2018-02-13 03:30;105,1
2018-02-13 03:45;104,15
2018-02-13 04:00;103,4
2018-02-13 04:15;103,65
2018-02-13 04:30;103,8
2018-02-13 04:45;100,7
2018-02-13 05:00;99,9
2018-02-13 05:15;100,1
2018-02-13 05:30;101,85
2018-02-13 05:45;99,6
2018-02-13 06:00;102,05
2018-02-13 06:15;102
2018-02-13 06:30;103,95
2018-02-13 06:45;100,15
2018-02-13 07:00;103,6
2018-02-13 07:15;102,05
2018-02-13 07:30;104,65
2018-02-13 07:45;117,05
2018-02-13 08:00;119,3
2018-02-13 08:15;124,6
2018-02-13 08:30;137,45
2018-02-13 08:45;151,5
2018-02-13 09:00;149,4
2018-02-13 09:15;159,35
2018-02-13 09:30;158,4
2018-02-13 09:45;162,85
2018-02-13 10:00;167,35
2018-02-13 10:15;175,55
2018-02-13 10:30;179,8
2018-02-13 10:45;195,2
2018-02-13 11:00;198,9
2018-02-13 11:15;202,5
2018-02-13 11:30;202,3
2018-02-13 11:45;205,05
2018-02-13 12:00;207,85
2018-02-13 12:15;199,55
2018-02-13 12:30;200,3
2018-02-13 12:45;199,4
2018-02-13 13:00;198,6
2018-02-13 13:15;204,4
2018-02-13 13:30;206,35
2018-02-13 13:45;207,25
2018-02-13 14:00;204,5
2018-02-13 14:15;195,85
2018-02-13 14:30;196,2
2018-02-13 14:45;199,8
2018-02-13 15:00;193,7
2018-02-13 15:15;190,7
2018-02-13 15:30;180,3
2018-02-13 15:45;175,45
2018-02-13 16:00;170,6
2018-02-13 16:15;162,5
2018-02-13 16:30;162,2
2018-02-13 16:45;156,55
2018-02-13 17:00;148,7
2018-02-13 17:15;148,15
2018-02-13 17:30;151,3
2018-02-13 17:45;151,25
2018-02-13 18:00;148,5
2018-02-13 18:15;145,9
2018-02-13 18:30;145
2018-02-13 18:45;146,15
2018-02-13 19:00;149,45
2018-02-13 19:15;145,55
2018-02-13 19:30;149,2
2018-02-13 19:45;152,15
2018-02-13 20:00;150,75
2018-02-13 20:15;145,9
2018-02-13 20:30;137,7
2018-02-13 20:45;134,35
2018-02-13 21:00;131
2018-02-13 21:15;125,7
2018-02-13 21:30;127,8
2018-02-13 21:45;122,4
2018-02-13 22:00;115,9
2018-02-13 22:15;109,4
2018-02-13 22:30;111,05
2018-02-13 22:45;109,95
2018-02-13 23:00;112,95
2018-02-13 23:15;109,65
2018-02-13 23:30;107,6
2018-02-13 23:45;112,3
2018-02-14 00:00;95
2018-02-14 00:15;97,2
2018-02-14 00:30;97,4
2018-02-14 00:45;96,75
2018-02-14 01:00;97,35
2018-02-14 01:15;97
2018-02-14 01:30;99,9
2018-02-14 01:45;97,6
2018-02-14 02:00;95,8
2018-02-14 02:15;97,25
2018-02-14 02:30;95,2
2018-02-14 02:45;98,15
2018-02-14 03:00;98,65
2018-02-14 03:15;98,95
2018-02-14 03:30;99,4
2018-02-14 03:45;97,3
2018-02-14 04:00;99,9
2018-02-14 04:15;95,95
2018-02-14 04:30;100,05
2018-02-14 04:45;95,75
2018-02-14 05:00;97,4
2018-02-14 05:15;95,7
2018-02-14 05:30;99,9
2018-02-14 05:45;95,65
2018-02-14 06:00;98,15
2018-02-14 06:15;96
2018-02-14 06:30;97,55
2018-02-14 06:45;99,45
2018-02-14 07:00;95,25
2018-02-14 07:15;104,55
2018-02-14 07:30;107,2
2018-02-14 07:45;115,2
2018-02-14 08:00;121,7
2018-02-14 08:15;130
2018-02-14 08:30;134,5
2018-02-14 08:45;145,1
2018-02-14 09:00;157,2
2018-02-14 09:15;169,55
2018-02-14 09:30;174,35
2018-02-14 09:45;183,45
2018-02-14 10:00;189,1
2018-02-14 10:15;191,7
2018-02-14 10:30;197,55
2018-02-14 10:45;205,25
2018-02-14 11:00;198,2
2018-02-14 11:15;206,95
2018-02-14 11:30;208,6
2018-02-14 11:45;209
2018-02-14 12:00;206,85
2018-02-14 12:15;213,1
2018-02-14 12:30;208,25
2018-02-14 12:45;205,15
2018-02-14 13:00;208,8
2018-02-14 13:15;208,6
2018-02-14 13:30;211,2
2018-02-14 13:45;209,6
2018-02-14 14:00;210,8
2018-02-14 14:15;205,5
2018-02-14 14:30;204,75
2018-02-14 14:45;196,85
2018-02-14 15:00;188,9
2018-02-14 15:15;188,05
2018-02-14 15:30;189,55
2018-02-14 15:45;182,8
2018-02-14 16:00;182,65
2018-02-14 16:15;179,15
2018-02-14 16:30;181
2018-02-14 16:45;176,6
2018-02-14 17:00;179,8
2018-02-14 17:15;165,3
2018-02-14 17:30;170,25
2018-02-14 17:45;166,55
2018-02-14 18:00;168,2
2018-02-14 18:15;171,9
2018-02-14 18:30;170
2018-02-14 18:45;160,1
2018-02-14 19:00;163,25
2018-02-14 19:15;152,75
2018-02-14 19:30;143,85
2018-02-14 19:45;139,2
2018-02-14 20:00;132,45
2018-02-14 20:15;133,3
2018-02-14 20:30;124,7
2018-02-14 20:45;127,85
2018-02-14 21:00;121,7
2018-02-14 21:15;111,8
2018-02-14 21:30;114,8
2018-02-14 21:45;106,85
2018-02-14 22:00;108,45
2018-02-14 22:15;105,4
2018-02-14 22:30;103,5
2018-02-14 22:45;106
2018-02-14 23:00;110,3
2018-02-14 23:15;108,3
2018-02-14 23:30;109,15
2018-02-14 23:45;113,85
2018-02-15 00:00;102,05
2018-02-15 00:15;101,95
2018-02-15 00:30;102,45
2018-02-15 00:45;101,4
2018-02-15 01:00;101,9
2018-02-15 01:15;101,15
2018-02-15 01:30;103,15
2018-02-15 01:45;101,1
2018-02-15 02:00;103,7
2018-02-15 02:15;100,75
2018-02-15 02:30;101,75
2018-02-15 02:45;102,4
2018-02-15 03:00;101,8
2018-02-15 03:15;102,6
2018-02-15 03:30;103
2018-02-15 03:45;106,55
2018-02-15 04:00;103,35
2018-02-15 04:15;105,5
2018-02-15 04:30;103,35
2018-02-15 04:45;106,1
2018-02-15 05:00;104,25
2018-02-15 05:15;105,6
2018-02-15 05:30;104,5
2018-02-15 05:45;103,2
2018-02-15 06:00;106,5
2018-02-15 06:15;101,9
2018-02-15 06:30;105,9
2018-02-15 06:45;103,75
2018-02-15 07:00;106,35
2018-02-15 07:15;105,2
2018-02-15 07:30;106,55
2018-02-15 07:45;115,4
2018-02-15 08:00;122,8
2018-02-15 08:15;131,9
2018-02-15 08:30;148,4
2018-02-15 08:45;170,75
2018-02-15 09:00;182,2
2018-02-15 09:15;192,4
2018-02-15 09:30;198,45
2018-02-15 09:45;209,2
2018-02-15 10:00;214,35
2018-02-15 10:15;220,75
2018-02-15 10:30;229,85
2018-02-15 10:45;231,1
2018-02-15 11:00;232,35
2018-02-15 11:15;233,65
2018-02-15 11:30;235,85
2018-02-15 11:45;240,05
2018-02-15 12:00;243,6
2018-02-15 12:15;245,05
2018-02-15 12:30;249,7
2018-02-15 12:45;248,45
2018-02-15 13:00;249,6
2018-02-15 13:15;248,05
2018-02-15 13:30;246,45
2018-02-15 13:45;243,6
2018-02-15 14:00;231,8
2018-02-15 14:15;218,3
2018-02-15 14:30;216,1
2018-02-15 14:45;212,7
2018-02-15 15:00;204,5
2018-02-15 15:15;205,25
2018-02-15 15:30;187,55
2018-02-15 15:45;178
2018-02-15 16:00;172,6
2018-02-15 16:15;168,1
2018-02-15 16:30;163,4
2018-02-15 16:45;162,75
2018-02-15 17:00;164,9
2018-02-15 17:15;156,15
2018-02-15 17:30;159,2
2018-02-15 17:45;157,1
2018-02-15 18:00;157,3
2018-02-15 18:15;154,2
2018-02-15 18:30;148,9
2018-02-15 18:45;150,4
2018-02-15 19:00;156,6
2018-02-15 19:15;149
2018-02-15 19:30;139,3
2018-02-15 19:45;141,2
2018-02-15 20:00;137,9
2018-02-15 20:15;138
2018-02-15 20:30;136,25
2018-02-15 20:45;133,05
2018-02-15 21:00;135,6
2018-02-15 21:15;131,15
2018-02-15 21:30;134
2018-02-15 21:45;126,45
2018-02-15 22:00;125,65
2018-02-15 22:15;121,85
2018-02-15 22:30;123,7
2018-02-15 22:45;119,75
2018-02-15 23:00;127,85
2018-02-15 23:15;123,3
2018-02-15 23:30;127,35
2018-02-15 23:45;129,3
2018-02-16 00:00;119,2
2018-02-16 00:15;119,75
2018-02-16 00:30;119,35
2018-02-16 00:45;114,75
2018-02-16 01:00;114,3
2018-02-16 01:15;110,6
2018-02-16 01:30;110,45
2018-02-16 01:45;109,75
2018-02-16 02:00;111,8
2018-02-16 02:15;108,7
2018-02-16 02:30;111,95
2018-02-16 02:45;111,9
2018-02-16 03:00;112,1
2018-02-16 03:15;110,15
2018-02-16 03:30;112
2018-02-16 03:45;110,2
2018-02-16 04:00;114,3
2018-02-16 04:15;110,5
2018-02-16 04:30;111,05
2018-02-16 04:45;110,15
2018-02-16 05:00;107,95
2018-02-16 05:15;109,1
2018-02-16 05:30;108,6
2018-02-16 05:45;107,7
2018-02-16 06:00;109,3
2018-02-16 06:15;107,55
2018-02-16 06:30;105,8
2018-02-16 06:45;110,2
2018-02-16 07:00;110,15
2018-02-16 07:15;107,3
2018-02-16 07:30;106,35
2018-02-16 07:45;116,65
2018-02-16 08:00;121,35
2018-02-16 08:15;129,3
2018-02-16 08:30;158,6
2018-02-16 08:45;176
2018-02-16 09:00;189,6
2018-02-16 09:15;192,45
2018-02-16 09:30;201,85
2018-02-16 09:45;208,95
2018-02-16 10:00;220,15
2018-02-16 10:15;224,6
2018-02-16 10:30;234,5
2018-02-16 10:45;238,95
2018-02-16 11:00;241,55
2018-02-16 11:15;237
2018-02-16 11:30;235,05
2018-02-16 11:45;226,85
2018-02-16 12:00;235,1
2018-02-16 12:15;240,4
2018-02-16 12:30;239,3
2018-02-16 12:45;249,35
2018-02-16 13:00;247,3
2018-02-16 13:15;248,05
2018-02-16 13:30;250,4
2018-02-16 13:45;246,85
2018-02-16 14:00;240,75
2018-02-16 14:15;239,7
2018-02-16 14:30;229,3
2018-02-16 14:45;228,8
2018-02-16 15:00;220,05
2018-02-16 15:15;217,55
2018-02-16 15:30;216,7
2018-02-16 15:45;217,05
2018-02-16 16:00;218,65
2018-02-16 16:15;208,8
2018-02-16 16:30;205
2018-02-16 16:45;200,7
2018-02-16 17:00;193,15
2018-02-16 17:15;182,25
2018-02-16 17:30;187,6
2018-02-16 17:45;186,75
2018-02-16 18:00;187,95
2018-02-16 18:15;180,75
2018-02-16 18:30;176,7
2018-02-16 18:45;177,8
2018-02-16 19:00;174,9
2018-02-16 19:15;169,15
2018-02-16 19:30;159,5
2018-02-16 19:45;153,3
2018-02-16 20:00;142,5
2018-02-16 20:15;134,4
2018-02-16 20:30;133,25
2018-02-16 20:45;129,95
2018-02-16 21:00;128,2
2018-02-16 21:15;126,45
2018-02-16 21:30;127,4
2018-02-16 21:45;124,4
2018-02-16 22:00;120,7
2018-02-16 22:15;119,15
2018-02-16 22:30;118,9
2018-02-16 22:45;117,65
2018-02-16 23:00;124,85
2018-02-16 23:15;117
2018-02-16 23:30;118,65
2018-02-16 23:45;124,95
2018-02-17 00:00;112,6
2018-02-17 00:15;115,3
2018-02-17 00:30;113,05
2018-02-17 00:45;110,85
2018-02-17 01:00;114,9
2018-02-17 01:15;110,45
2018-02-17 01:30;110,9
2018-02-17 01:45;109,25
2018-02-17 02:00;110,95
2018-02-17 02:15;108,3
2018-02-17 02:30;108,05
2018-02-17 02:45;107,8
2018-02-17 03:00;105,8
2018-02-17 03:15;106,75
2018-02-17 03:30;107,65
2018-02-17 03:45;105,75
2018-02-17 04:00;105,8
2018-02-17 04:15;107,05
2018-02-17 04:30;104,95
2018-02-17 04:45;105,65
2018-02-17 05:00;102,95
2018-02-17 05:15;103
2018-02-17 05:30;101,85
2018-02-17 05:45;101,85
2018-02-17 06:00;103,9
2018-02-17 06:15;104,05
2018-02-17 06:30;103,25
2018-02-17 06:45;102,9
2018-02-17 07:00;104,55
2018-02-17 07:15;103,7
2018-02-17 07:30;101,8
2018-02-17 07:45;102
2018-02-17 08:00;102,6
2018-02-17 08:15;99,9
2018-02-17 08:30;98,6
2018-02-17 08:45;98,65
2018-02-17 09:00;98,05
2018-02-17 09:15;99,55
2018-02-17 09:30;97,85
2018-02-17 09:45;98,2
2018-02-17 10:00;102,95
2018-02-17 10:15;101,45
2018-02-17 10:30;99,6
2018-02-17 10:45;101,6
2018-02-17 11:00;102,15
2018-02-17 11:15;101,5
2018-02-17 11:30;102,55
2018-02-17 11:45;103,45
2018-02-17 12:00;104,6
2018-02-17 12:15;108,15
2018-02-17 12:30;110,7
2018-02-17 12:45;108,5
2018-02-17 13:00;107,95
2018-02-17 13:15;107,65
2018-02-17 13:30;105,3
2018-02-17 13:45;102,1
2018-02-17 14:00;101,65
2018-02-17 14:15;102,15
2018-02-17 14:30;103,5
2018-02-17 14:45;103,6
2018-02-17 15:00;102,5
2018-02-17 15:15;104,45
2018-02-17 15:30;105,7
2018-02-17 15:45;104,6
2018-02-17 16:00;104,35
2018-02-17 16:15;104,5
2018-02-17 16:30;104,4
2018-02-17 16:45;104,6
2018-02-17 17:00;108,85
2018-02-17 17:15;105,45
2018-02-17 17:30;106,8
2018-02-17 17:45;112,3
2018-02-17 18:00;109,4
2018-02-17 18:15;113,4
2018-02-17 18:30;111,5
2018-02-17 18:45;110,65
2018-02-17 19:00;115,65
2018-02-17 19:15;106,85
2018-02-17 19:30;106,4
2018-02-17 19:45;108,85
2018-02-17 20:00;106,5
2018-02-17 20:15;105,95
2018-02-17 20:30;104,45
2018-02-17 20:45;103,5
2018-02-17 21:00;104
2018-02-17 21:15;105,55
2018-02-17 21:30;104,4
2018-02-17 21:45;105,35
2018-02-17 22:00;100,7
2018-02-17 22:15;103,05
2018-02-17 22:30;103,05
2018-02-17 22:45;99,2
2018-02-17 23:00;106,9
2018-02-17 23:15;103,3
2018-02-17 23:30;105,55
2018-02-17 23:45;112,1
2018-02-18 00:00;100,7
2018-02-18 00:15;102,65
2018-02-18 00:30;102,95
2018-02-18 00:45;102,1
2018-02-18 01:00;104,55
2018-02-18 01:15;104
2018-02-18 01:30;103,4
2018-02-18 01:45;102,95
2018-02-18 02:00;102,8
2018-02-18 02:15;99,3
2018-02-18 02:30;101,1
2018-02-18 02:45;100,15
2018-02-18 03:00;100
2018-02-18 03:15;99,2
2018-02-18 03:30;99,5
2018-02-18 03:45;99,25
2018-02-18 04:00;100,05
2018-02-18 04:15;99,95
2018-02-18 04:30;100,05
2018-02-18 04:45;98,5
2018-02-18 05:00;95,55
2018-02-18 05:15;95,55
2018-02-18 05:30;96,65
2018-02-18 05:45;96,25
2018-02-18 06:00;96,65
2018-02-18 06:15;95,05
2018-02-18 06:30;94,75
2018-02-18 06:45;94,1
2018-02-18 07:00;93,1
2018-02-18 07:15;92,4
2018-02-18 07:30;91,7
2018-02-18 07:45;91,35
2018-02-18 08:00;93,05
2018-02-18 08:15;92,05
2018-02-18 08:30;91,55
2018-02-18 08:45;90,6
2018-02-18 09:00;87,05
2018-02-18 09:15;87,5
2018-02-18 09:30;88,15
2018-02-18 09:45;90,5
2018-02-18 10:00;90,75
2018-02-18 10:15;90
2018-02-18 10:30;88,75
2018-02-18 10:45;93,5
2018-02-18 11:00;96,05
2018-02-18 11:15;98,45
2018-02-18 11:30;98,6
2018-02-18 11:45;98,55
2018-02-18 12:00;98,15
2018-02-18 12:15;100,75
2018-02-18 12:30;100,5
2018-02-18 12:45;97,85
2018-02-18 13:00;93,95
2018-02-18 13:15;94,05
2018-02-18 13:30;94,05
2018-02-18 13:45;95,4
2018-02-18 14:00;95,1
2018-02-18 14:15;96,4
2018-02-18 14:30;97,65
2018-02-18 14:45;94,35
2018-02-18 15:00;96,4
2018-02-18 15:15;94,45
2018-02-18 15:30;97,8
2018-02-18 15:45;96,45
2018-02-18 16:00;93,8
2018-02-18 16:15;93
2018-02-18 16:30;93,6
2018-02-18 16:45;95,85
2018-02-18 17:00;99,1
2018-02-18 17:15;96,3
2018-02-18 17:30;99,1
2018-02-18 17:45;103
2018-02-18 18:00;104,05
2018-02-18 18:15;108
2018-02-18 18:30;108,35
2018-02-18 18:45;107,75
2018-02-18 19:00;114,45
2018-02-18 19:15;106,8
2018-02-18 19:30;104,2
2018-02-18 19:45;104,75
2018-02-18 20:00;108,8
2018-02-18 20:15;107,5
2018-02-18 20:30;104,2
2018-02-18 20:45;103,25
2018-02-18 21:00;103,1
2018-02-18 21:15;106,35
2018-02-18 21:30;103,55
2018-02-18 21:45;100,35
2018-02-18 22:00;96,05
2018-02-18 22:15;96,25
2018-02-18 22:30;95,4
2018-02-18 22:45;97,2
2018-02-18 23:00;102,8
2018-02-18 23:15;97,2
2018-02-18 23:30;101,25
2018-02-18 23:45;105,75

